Погода в Сухой Лубне

Россия / Липецкая область     52°48′00″N   39°20′33″E
темп.,
°C
ветер,
м/с
пор.,
м/с
влажн.,
%
обл.,
%
осадки,
мм/ч
давл.,
гПа
погр.,
м
5 марта, пт
пт500:000з4899100 0.6 1002462
03:00−2з41093100 0.8 1003334
06:00−4сз489599 0.1 1005294
09:00−5сз479593 0.1 1008268
12:00−3зсз349328 0.0 1010348
15:00−2зсз358957 0.0 1012564
18:00−5з339491 0.0 101342
21:00−8з239268 0.0 101522
6 марта, сб
сб600:00−8зсз229282 0.0 101622
03:00−9зсз119391 0.0 101721
06:00−10ссз1193100 0.0 101621
09:00−7с1193100 0.0 101642
12:00−5сз1194100 0.4 1016203
15:00−4ссз2493100 1.4 1015443
18:00−6сз359599 0.4 1016145
21:00−10сз479690 0.5 1017103
7 марта, вс
вс700:00−12зсз349221 0.0 101859
03:00−12зюз479211 0.0 1018120
06:00−12юз511910 0.0 1016227
09:00−8юз8168632 0.0 1013598
12:00−5юз111779100 0.0 1009941
15:00−3юз121992100 0.3 10041268
18:00−2зюз112090100 0.9 10011160
21:00−7з51376100 1.9 1004470
8 марта, пн
пн800:00−10зюз510780 0.0 1005180
03:00−9юз615790 0.0 1004300
06:00−7юз716880 0.0 1002498
09:00−5зюз9149243 0.2 10011209
12:00−6зсз91376100 0.4 10031241
15:00−8зсз8128266 0.4 1007921
18:00−10з5138452 0.0 1009374
21:00−12з498926 0.0 1011157
9 марта, вт
вт900:00−14з34900 0.0 101266
03:00−15з34910 0.0 101348
06:00−14з239343 0.0 101435
09:00−12сз239571 0.1 1014173
12:00−10с459199 0.1 1015460
15:00−10с4685100 0.1 1016633
18:00−13ссз4892100 0.0 1018266
21:00−17ссз359664 0.0 102190